Location: ?ejeti?ky
(50.4060°N, 14.9016°E)
Time: 07:00:51
(UTC+00:00)

N. Korean satellite - Pass Details

Date: 06 December 2021
Orbit: 446 x 491 km, 97.3° (Epoch: 18 January)

Event Time Altitude Azimuth Distance (km) Brightness Sun altitude
Rises 05:19:49 0° 1° (N) 2,471 10.0 -12.8°
Reaches altitude 10° 05:22:10 10° 346° (NNW) 1,589 8.8 -12.5°
Maximum altitude 05:24:49 22° 294° (WNW) 1,045 7.6 -12.1°
Drops below altitude 10° 05:27:28 10° 243° (WSW) 1,575 8.8 -11.7°
Sets 05:29:46 0° 227° (SW) 2,442 9.9 -11.4°
